Change the Weather History Date:

Friday, April 26, 2013

  Actual Average Record
Temperature  
Mean Temperature 42 °F -  
Max Temperature 63 °F 53 °F 70 °F (1987)
Min Temperature 21 °F 24 °F 12 °F (1976)
Degree Days  
Heating Degree Days 23    
Moisture  
Dew Point 9 °F    
Average Humidity 30    
Maximum Humidity 68    
Minimum Humidity 11    
Precipitation  
Precipitation 0.00 in - - ()
Sea Level Pressure  
Sea Level Pressure 30.11 in    
Wind  
Wind Speed 6 mph (NW)    
Max Wind Speed 17 mph    
Max Gust Speed 24 mph    
Visibility 10 miles    
Events      
Averages and records for this station are not official NWS values.
T = Trace of Precipitation, MM = Missing Value Source: NWS Daily Summary

Daily Weather History Graph

Daily Weather History Graph

Search for Another Location

Airport or City:

Trip Planner

Search our weather history database for the weather conditions in past years. The results will help you decide how hot, cold, wet, or windy it might be!

Date:

Astronomy

Apr. 26, 2013 Rise Set
Actual Time 6:38 AM MDT 8:14 PM MDT
Civil Twilight 6:10 AM MDT 8:42 PM MDT
Nautical Twilight 5:37 AM MDT 9:16 PM MDT
Astronomical Twilight 5:01 AM MDT 9:51 PM MDT
Moon 9:40 PM MDT (4/26) 7:10 AM MDT (4/26)
Length of Visible Light 14h 31m
Length of Day
13h 36m
Full, 99% of the Moon is Illuminated
Apr 26
Full
May 2
Last Quarter
May 9
New
May 17
First Quarter
May 24
Full

Hourly Weather History & Observations

Time (MDT) Temp. Windchill Dew Point Humidity Pressure Visibility Wind Dir Wind Speed Gust Speed Precip Events Conditions
1:53 AM 30.0 °F - 12.9 °F 49% 30.00 in 10.0 mi Calm Calm - N/A   Clear
2:53 AM 28.9 °F 25.2 °F 14.0 °F 54% 30.01 in 10.0 mi Variable 3.5 mph - N/A   Clear
3:53 AM 26.1 °F 19.4 °F 12.9 °F 58% 30.06 in 10.0 mi West 5.8 mph - N/A   Clear
4:53 AM 27.0 °F - 12.9 °F 56% 30.06 in 10.0 mi Calm Calm - N/A   Clear
5:53 AM 21.0 °F - 12.0 °F 68% 30.10 in 10.0 mi Calm Calm - N/A   Clear
6:53 AM 23.0 °F 15.8 °F 10.9 °F 60% 30.10 in 10.0 mi West 5.8 mph - N/A   Clear
7:53 AM 30.9 °F 25.2 °F 12.9 °F 47% 30.12 in 10.0 mi West 5.8 mph - N/A   Clear
8:53 AM 45.0 °F - 9.0 °F 23% 30.10 in 10.0 mi Calm Calm - N/A   Clear
9:53 AM 51.1 °F - 8.1 °F 18% 30.12 in 10.0 mi Variable 5.8 mph - N/A   Clear
10:53 AM 54.0 °F - 7.0 °F 15% 30.15 in 10.0 mi NE 6.9 mph - N/A   Clear
11:53 AM 57.0 °F - 8.1 °F 14% 30.12 in 10.0 mi NNW 12.7 mph 18.4 mph N/A   Clear
12:53 PM 57.9 °F - 7.0 °F 13% 30.12 in 10.0 mi West 10.4 mph 21.9 mph N/A   Clear
1:53 PM 60.1 °F - 7.0 °F 12% 30.11 in 10.0 mi NNW 9.2 mph 21.9 mph N/A   Clear
2:53 PM 61.0 °F - 5.0 °F 11% 30.11 in 10.0 mi NW 15.0 mph 24.2 mph N/A   Clear
3:53 PM 61.0 °F - 5.0 °F 11% 30.11 in 10.0 mi West 10.4 mph 20.7 mph N/A   Clear
4:53 PM 63.0 °F - 8.1 °F 11% 30.09 in 10.0 mi NW 16.1 mph 23.0 mph N/A   Scattered Clouds
5:53 PM 60.1 °F - 6.1 °F 12% 30.13 in 10.0 mi NNW 12.7 mph - N/A   Clear
6:53 PM 59.0 °F - 8.1 °F 13% 30.14 in 10.0 mi WNW 15.0 mph 24.2 mph N/A   Partly Cloudy
7:53 PM 54.0 °F - 8.1 °F 16% 30.14 in 10.0 mi NW 17.3 mph 21.9 mph N/A   Clear
8:53 PM 48.9 °F - 9.0 °F 20% 30.12 in 10.0 mi WNW 9.2 mph - N/A   Clear
9:53 PM 41.0 °F 38.0 °F 10.0 °F 28% 30.16 in 10.0 mi NNE 4.6 mph - N/A   Clear
10:53 PM 34.0 °F 29.8 °F 10.0 °F 37% 30.19 in 10.0 mi North 4.6 mph - N/A   Clear
11:53 PM 30.0 °F 22.4 °F 12.9 °F 49% 30.19 in 10.0 mi West 8.1 mph - N/A   Clear